Home > Weather > Prince George > Past weeks

Flag for Canada Weather for the Past 2 Weeks in Prince George, British Columbia, Canada

Now
34 °F

Fog.


Feels Like: 34 °F
Forecast: 33 / 42 °F
Wind: No wind

Location: Prince George

Current Time: Feb 11, 2016 at 11:02:08 PM

Latest Report: Feb 11, 2016 at 10:00 PM


Visibility: 4 mi

Pressure: 30.17 "Hg (28.09 "Hg at 573m altitude)

Humidity: 100%

Dew point: 34 °F

Location of Prince GeorgeLocation

Historic Weather in Prince George — Graph

°F

Prince George Temperature Yesterday

Maximum temperature yesterday: 41 °F (at 12:00 PM)
Minimum temperature yesterday: 28 °F (at 1:00 AM)
Average temperature yesterday: 35 °F

High & Low Weather Summary for the Past Weeks

 TemperatureHumidityPressure
High45 °F (Jan 27, 9:00 PM)100% (Jan 29, 7:53 PM)30.54 "Hg (Jan 29, 7:53 PM)
Low7 °F (Feb 3, 6:01 AM)45% (Feb 6, 3:00 PM)29.41 "Hg (Jan 28, 6:00 AM)
Average31 °F86%30.04 "Hg
* Reported Jan 27 9:00 PM — Feb 11 9:00 PM, Prince George, Weather by CustomWeather, © 2016

Note: Actual official high and low records may vary slightly from our data, if they occured in-between our weather recording intervals... More about our weather records

Advertising

Prince George Weather History for the Previous 24 Hours

 ConditionsComfort  
Time TempWeatherWind HumidityBarometerVisibility
9:00 PM
Thu, Feb 11
34 °FOvercast.3 mph100%30.17 "Hg9 mi
8:00 PM36 °FOvercast.7 mph93%30.17 "Hg9 mi
7:00 PM34 °FOvercast.9 mph100%30.18 "Hg9 mi
6:00 PM36 °FOvercast.10 mph93%30.21 "Hg9 mi
5:00 PM34 °FScattered clouds.6 mph100%30.23 "Hg9 mi
4:00 PM36 °FPartly sunny.5 mph93%30.25 "Hg9 mi
3:00 PM36 °FSunny.5 mph93%30.27 "Hg9 mi
1:00 PM36 °FFog.6 mph93%30.30 "Hg4 mi
12:57 PM36 °FFog.5 mph93%30.30 "Hg5 mi
12:00 PM34 °FSunny.7 mph93%30.32 "Hg9 mi
11:00 AM36 °FSunny.No wind87%30.34 "Hg9 mi
10:00 AM34 °FSunny.5 mph93%30.36 "Hg9 mi
9:00 AM28 °FSunny.5 mph100%30.36 "Hg9 mi
8:02 AM25 °FIce fog.5 mph100%30.36 "Hg1 mi
7:00 AM28 °FClear.6 mph100%30.34 "Hg9 mi
6:00 AM30 °FClear.2 mph100%30.32 "Hg9 mi
5:00 AM30 °FClear.5 mph100%30.32 "Hg9 mi
4:00 AM32 °FClear.5 mph100%30.31 "Hg9 mi
3:00 AM32 °FClear.6 mph100%30.29 "Hg9 mi
2:00 AM36 °FClear.7 mph93%30.26 "Hg9 mi
1:00 AM37 °FPassing clouds.9 mph87%30.22 "Hg9 mi
12:00 AM37 °FPassing clouds.12 mph93%30.19 "Hg9 mi
11:00 PM
Wed, Feb 10
36 °FPassing clouds.7 mph93%30.16 "Hg9 mi
Weather by CustomWeather, © 2016

See weather overviewHow to use our weather pages